Location: Krakow
(50.0212°N, 19.9423°E)
Time: 20:42:53
(UTC+02:00)

TIGRISAT - Visible Passes

Search period start: 22 April 2024 00:00
Search period end: 02 May 2024 00:00
Orbit: 594 x 674 km, 97.7° (Epoch: 22 April)

Date Brightness Start Highest point End Pass type
(mag) Time Alt. Az. Time Alt. Az. Time Alt. Az.
22 Apr ? 03:14:58 10° ESE 03:18:04 19° ENE 03:21:08 10° NNE visible
22 Apr ? 04:49:48 10° S 04:54:08 58° W 04:58:24 10° NNW visible
23 Apr ? 03:35:45 10° SE 03:39:30 29° ENE 03:43:11 10° N visible
24 Apr ? 03:56:49 10° SE 04:00:58 44° ENE 04:05:03 10° N visible
25 Apr ? 02:45:50 10° ENE 02:46:49 11° NE 02:47:47 10° NE visible
25 Apr ? 04:18:08 10° SSE 04:22:29 71° ENE 04:26:45 10° N visible
26 Apr ? 03:05:28 10° E 03:08:05 16° ENE 03:10:42 10° NNE visible
26 Apr ? 04:39:41 10° S 04:44:02 72° WSW 04:48:19 10° NNW visible
27 Apr ? 03:25:59 10° ESE 03:29:25 24° ENE 03:32:50 10° N visible
28 Apr ? 03:46:52 10° SE 03:50:48 36° ENE 03:54:42 10° N visible
29 Apr ? 04:08:00 10° SSE 04:12:13 57° ENE 04:16:24 10° N visible
30 Apr ? 02:55:53 10° E 02:57:53 13° ENE 02:59:53 10° NNE visible
30 Apr ? 04:29:23 10° SSE 04:33:42 89° W 04:37:57 10° NNW visible
01 May ? 03:16:04 10° ESE 03:19:07 20° ENE 03:22:10 10° NNE visible
